Flag for Brazil Weather past 2 weeks in Itumbiara, Goiás, Brazil

Now
63 °F

Clear.


Feels Like: 63 °F
Forecast: 61 / 86 °F
Wind: 6 mph from Southeast

Location: Uberlandia Airport

Current Time: May 30, 2015 at 12:45:30 AM

Latest Report: May 30, 2015 at 12:00 AM


Visibility: 10 mi

Pressure: 30.07 "Hg

Humidity: 83%

Dew point: 57 °F

Location of ItumbiaraLocation

Historic Weather in Itumbiara — Graph

°F

Itumbiara temperature yesterday

Maximum temperature yesterday: 75 °F (at 2:00 PM)
Minimum temperature yesterday: 57 °F (at 5:00 AM)
Average temperature yesterday: 65 °F

Past Weeks' High & Low Weather Summary

 TemperatureHumidityPressure
High82 °F (May 26, 3:00 PM)94% (May 15, 5:00 AM)30.30 "Hg (May 15, 5:00 AM)
Low57 °F (May 29, 5:00 AM)32% (May 26, 3:00 PM)29.98 "Hg (May 29, 4:00 PM)
Average67 °F74%30.16 "Hg
* Reported May 14 11:00 PM — May 29 11:00 PM, Itumbiara, Weather by CustomWeather, © 2015

Note: Actual official high and low records may vary slightly from our data, if they occured in-between our weather recording intervals... More about our weather records

Advertising

Itumbiara weather history for previous 24 hours

 ConditionsComfort  
Time TempWeatherWind HumidityBarometerVisibility
11:00 PM
Fri, May 29
63 °FClear.5 mph83%30.07 "Hg10 mi
10:00 PM64 °FClear.5 mph78%30.07 "Hg10 mi
9:00 PM64 °FClear.6 mph83%30.07 "Hg10 mi
8:00 PM64 °FPassing clouds.6 mph83%30.04 "HgN/A
7:00 PM66 °FPassing clouds.5 mph78%30.04 "HgN/A
6:00 PM72 °FPassing clouds.5 mph65%30.01 "HgN/A
5:00 PM73 °FScattered clouds.8 mph57%30.01 "HgN/A
4:00 PM73 °FScattered clouds.7 mph61%29.98 "HgN/A
3:00 PM73 °FPassing clouds.9 mph57%30.01 "HgN/A
2:00 PM75 °FPassing clouds.9 mph54%30.01 "HgN/A
1:00 PM72 °FScattered clouds.10 mph57%30.04 "HgN/A
12:00 PM70 °FScattered clouds.5 mph69%30.07 "HgN/A
11:00 AM68 °FScattered clouds.6 mph69%30.09 "HgN/A
10:00 AM66 °FPassing clouds.8 mph73%30.12 "HgN/A
9:00 AM64 °FPassing clouds.9 mph73%30.09 "HgN/A
8:00 AM63 °FSunny.3 mph77%30.07 "Hg10 mi
7:00 AM61 °FSunny.3 mph83%30.07 "Hg10 mi
6:00 AM57 °FPassing clouds.1 mph94%30.04 "HgN/A
5:00 AM57 °FPassing clouds.5 mph94%30.01 "HgN/A
4:00 AM59 °FLight rain. Passing clouds.7 mph88%30.01 "HgN/A
3:00 AM59 °FClear.5 mph94%30.07 "Hg10 mi
2:00 AM61 °FClear.8 mph88%30.09 "Hg10 mi
1:00 AM61 °FPassing clouds.2 mph88%30.09 "HgN/A
12:00 AM61 °FLight rain. Passing clouds.3 mph88%30.09 "HgN/A
Weather by CustomWeather, © 2015

See weather overviewHow to use our weather pages